| time (UTC) | temp C | wind direction | speed KPH | gust KPH | rain 1hr cm | rain 24hr cm | rain mn cm | humidity % | barometer mb |
| 20260505025047 | 17 | 59 | 8.0 | 17.7 | 0.00 | 0.00 | 0.00 | 93 | 1030.6 |
| 20260505024815 | 17 | 126 | 6.4 | 17.7 | 0.00 | 0.00 | 0.00 | 93 | 1030.6 |
| 20260505024041 | 17 | 98 | 11.3 | 17.7 | 0.00 | 0.00 | 0.00 | 93 | 1030.6 |
| 20260505023544 | 17 | 84 | 9.7 | 20.9 | 0.00 | 0.00 | 0.00 | 93 | 1030.5 |
| 20260505023039 | 17 | 99 | 8.0 | 20.9 | 0.00 | 0.00 | 0.00 | 94 | 1030.9 |
| 20260505022538 | 17 | 97 | 8.0 | 19.3 | 0.00 | 0.00 | 0.00 | 93 | 1030.6 |
| 20260505022035 | 17 | 48 | 11.3 | 17.7 | 0.00 | 0.00 | 0.00 | 93 | 1030.6 |
| 20260505021534 | 17 | 55 | 9.7 | 17.7 | 0.00 | 0.00 | 0.00 | 93 | 1030.6 |
| 20260505021034 | 17 | 76 | 9.7 | 20.9 | 0.00 | 0.00 | 0.00 | 94 | 1030.6 |
| 20260505020529 | 17 | 82 | 8.0 | 20.9 | 0.00 | 0.00 | 0.00 | 94 | 1030.7 |
| 20260505020025 | 17 | 103 | 9.7 | 17.7 | 0.00 | 0.00 | 0.00 | 94 | 1030.7 |
| 20260505015525 | 17 | 115 | 9.7 | 19.3 | 0.00 | 0.00 | 0.00 | 94 | 1030.7 |
| 20260505015020 | 17 | 101 | 11.3 | 19.3 | 0.00 | 0.00 | 0.00 | 94 | 1030.7 |
| 20260505014520 | 17 | 84 | 9.7 | 16.1 | 0.00 | 0.00 | 0.00 | 94 | 1030.7 |
| 20260505014016 | 17 | 94 | 8.0 | 14.5 | 0.00 | 0.00 | 0.00 | 94 | 1030.7 |
| 20260505013520 | 17 | 48 | 9.7 | 19.3 | 0.00 | 0.00 | 0.00 | 94 | 1030.9 |
| 20260505013017 | 17 | 109 | 8.0 | 19.3 | 0.00 | 0.00 | 0.00 | 94 | 1030.9 |
| 20260505012516 | 17 | 99 | 8.0 | 17.7 | 0.00 | 0.00 | 0.00 | 94 | 1031.0 |
| 20260505012011 | 17 | 105 | 9.7 | 17.7 | 0.00 | 0.00 | 0.00 | 94 | 1030.9 |
| 20260505011513 | 17 | 101 | 9.7 | 17.7 | 0.00 | 0.00 | 0.00 | 94 | 1031.2 |
| 20260505011013 | 17 | 96 | 8.0 | 19.3 | 0.00 | 0.00 | 0.00 | 94 | 1031.1 |
| 20260505010508 | 17 | 109 | 9.7 | 19.3 | 0.00 | 0.00 | 0.00 | 94 | 1031.2 |
| 20260505010007 | 17 | 99 | 9.7 | 17.7 | 0.00 | 0.00 | 0.00 | 94 | 1031.1 |
| 20260505005508 | 17 | 61 | 11.3 | 17.7 | 0.00 | 0.00 | 0.00 | 94 | 1031.2 |
| 20260505005007 | 17 | 96 | 4.8 | 17.7 | 0.00 | 0.00 | 0.00 | 94 | 1031.1 |
| 20260505004509 | 17 | 103 | 4.8 | 19.3 | 0.00 | 0.00 | 0.00 | 94 | 1031.2 |
| 20260505003512 | 17 | 116 | 8.0 | 22.5 | 0.00 | 0.00 | 0.00 | 94 | 1031.6 |
| 20260505003504 | 17 | 113 | 9.7 | 22.5 | 0.00 | 0.00 | 0.00 | 93 | 1031.4 |
| 20260505002455 | 17 | 115 | 11.3 | 20.9 | 0.00 | 0.00 | 0.00 | 94 | 1031.8 |
| 20260505001949 | 17 | 102 | 12.9 | 19.3 | 0.00 | 0.00 | 0.00 | 94 | 1031.8 |
| 20260505001449 | 17 | 128 | 12.9 | 17.7 | 0.00 | 0.00 | 0.00 | 94 | 1031.9 |
| 20260505000945 | 16 | 110 | 9.7 | 17.7 | 0.00 | 0.00 | 0.00 | 94 | 1031.9 |
| 20260505000444 | 16 | 112 | 6.4 | 25.7 | 0.00 | 0.00 | 0.00 | 95 | 1032.1 |
| 20260504235939 | 16 | 138 | 12.9 | 25.7 | 0.00 | 0.00 | 0.00 | 94 | 1032.1 |
| 20260504235435 | 16 | 143 | 11.3 | 17.7 | 0.00 | 0.00 | 0.00 | 94 | 1032.1 |
| 20260504234938 | 16 | 139 | 11.3 | 17.7 | 0.00 | 0.00 | 0.00 | 94 | 1032.3 |
| 20260504234433 | 16 | 119 | 12.9 | 17.7 | 0.00 | 0.00 | 0.00 | 94 | 1032.4 |
| 20260504234203 | 16 | 105 | 9.7 | 19.3 | 0.00 | 0.00 | 0.00 | 94 | 1032.3 |
| 20260504233428 | 16 | 117 | 9.7 | 19.3 | 0.00 | 0.00 | 0.00 | 94 | 1032.4 |
| 20260504232923 | 16 | 141 | 9.7 | 16.1 | 0.00 | 0.00 | 0.00 | 94 | 1032.5 |
| 20260504232419 | 16 | 130 | 8.0 | 14.5 | 0.00 | 0.00 | 0.00 | 94 | 1032.6 |
| 20260504231919 | 16 | 87 | 8.0 | 14.5 | 0.00 | 0.00 | 0.00 | 94 | 1032.6 |
| 20260504231418 | 16 | 144 | 6.4 | 14.5 | 0.00 | 0.00 | 0.00 | 94 | 1032.7 |
| 20260504230915 | 16 | 105 | 8.0 | 17.7 | 0.00 | 0.00 | 0.00 | 94 | 1032.8 |
| 20260504230414 | 16 | 112 | 9.7 | 17.7 | 0.00 | 0.00 | 0.00 | 94 | 1032.7 |
| 20260504225915 | 16 | 110 | 9.7 | 17.7 | 0.00 | 0.00 | 0.00 | 94 | 1032.8 |
| 20260504225414 | 16 | 127 | 8.0 | 14.5 | 0.00 | 0.00 | 0.00 | 94 | 1032.9 |
| 20260504224909 | 16 | 121 | 4.8 | 16.1 | 0.00 | 0.00 | 0.00 | 94 | 1032.9 |
| 20260504224408 | 16 | 150 | 8.0 | 16.1 | 0.00 | 0.00 | 0.00 | 94 | 1032.9 |
| 20260504223908 | 16 | 90 | 8.0 | 14.5 | 0.00 | 0.00 | 0.00 | 94 | 1032.9 |
| 20260504223404 | 16 | 136 | 9.7 | 14.5 | 0.00 | 0.00 | 0.00 | 94 | 1033.0 |
| 20260504222900 | 16 | 116 | 6.4 | 14.5 | 0.00 | 0.00 | 0.00 | 94 | 1033.0 |
| 20260504222356 | 16 | 147 | 6.4 | 14.5 | 0.00 | 0.00 | 0.00 | 94 | 1033.1 |
| 20260504221859 | 16 | 143 | 6.4 | 12.9 | 0.00 | 0.00 | 0.00 | 94 | 1033.0 |
| 20260504221851 | 16 | 150 | 4.8 | 9.7 | 0.00 | 0.00 | 0.00 | 94 | 1033.0 |
| 20260504220843 | 16 | 121 | 6.4 | 12.9 | 0.00 | 0.00 | 0.00 | 94 | 1033.0 |
| 20260504220338 | 16 | 148 | 6.4 | 12.9 | 0.00 | 0.00 | 0.00 | 94 | 1033.1 |
| 20260504215838 | 16 | 132 | 6.4 | 12.9 | 0.00 | 0.00 | 0.00 | 94 | 1033.0 |
| 20260504215340 | 16 | 126 | 4.8 | 12.9 | 0.00 | 0.00 | 0.00 | 94 | 1033.0 |
| 20260504214837 | 15 | 153 | 6.4 | 11.3 | 0.00 | 0.00 | 0.00 | 95 | 1033.0 |
| 20260504214332 | 15 | 152 | 6.4 | 11.3 | 0.00 | 0.00 | 0.00 | 95 | 1033.1 |
| 20260504213832 | 15 | 158 | 6.4 | 11.3 | 0.00 | 0.00 | 0.00 | 95 | 1033.2 |
| 20260504213331 | 15 | 144 | 4.8 | 11.3 | 0.00 | 0.00 | 0.00 | 95 | 1033.1 |
| 20260504212827 | 15 | 146 | 3.2 | 11.3 | 0.00 | 0.00 | 0.00 | 95 | 1033.2 |
| 20260504212323 | 15 | 114 | 3.2 | 9.7 | 0.00 | 0.00 | 0.00 | 95 | 1033.2 |
| 20260504212103 | 15 | 157 | 3.2 | 9.7 | 0.00 | 0.00 | 0.00 | 95 | 1033.2 |
| 20260504211324 | 15 | 109 | 3.2 | 9.7 | 0.00 | 0.00 | 0.00 | 95 | 1033.2 |
| 20260504211057 | 15 | 153 | 3.2 | 8.0 | 0.00 | 0.00 | 0.00 | 95 | 1033.2 |
| 20260504210315 | 15 | 148 | 3.2 | 9.7 | 0.00 | 0.00 | 0.00 | 96 | 1033.2 |
| 20260504210053 | 15 | 167 | 4.8 | 11.3 | 0.00 | 0.00 | 0.00 | 95 | 1033.1 |
| 20260504205311 | 15 | 125 | 4.8 | 11.3 | 0.00 | 0.00 | 0.00 | 96 | 1033.2 |
| 20260504204806 | 15 | 109 | 4.8 | 11.3 | 0.00 | 0.00 | 0.00 | 96 | 1033.2 |
| 20260504204306 | 15 | 136 | 4.8 | 9.7 | 0.00 | 0.00 | 0.00 | 96 | 1033.2 |
| 20260504203805 | 14 | 114 | 3.2 | 9.7 | 0.00 | 0.00 | 0.00 | 96 | 1033.2 |
| 20260504203306 | 14 | 137 | 4.8 | 11.3 | 0.00 | 0.00 | 0.00 | 97 | 1033.2 |
| 20260504202804 | 14 | 129 | 3.2 | 11.3 | 0.00 | 0.00 | 0.00 | 97 | 1033.1 |
| 20260504202259 | 14 | 138 | 4.8 | 8.0 | 0.00 | 0.00 | 0.00 | 97 | 1033.1 |
| 20260504201755 | 14 | 132 | 4.8 | 11.3 | 0.00 | 0.00 | 0.00 | 97 | 1033.1 |
| 20260504201250 | 14 | 102 | 4.8 | 11.3 | 0.00 | 0.00 | 0.00 | 97 | 1033.1 |
| 20260504200749 | 14 | 144 | 6.4 | 11.3 | 0.00 | 0.00 | 0.00 | 97 | 1033.0 |
| 20260504200246 | 14 | 151 | 3.2 | 8.0 | 0.00 | 0.00 | 0.00 | 97 | 1033.0 |
| 20260504195744 | 13 | 160 | 1.6 | 6.4 | 0.00 | 0.00 | 0.00 | 97 | 1033.0 |
| 20260504195244 | 13 | 153 | 3.2 | 8.0 | 0.00 | 0.00 | 0.00 | 98 | 1032.9 |
| 20260504194747 | 13 | 156 | 4.8 | 8.0 | 0.00 | 0.00 | 0.00 | 98 | 1032.8 |
| 20260504194240 | 13 | 143 | 4.8 | 11.3 | 0.00 | 0.00 | 0.00 | 98 | 1032.7 |
| 20260504193737 | 13 | 161 | 3.2 | 11.3 | 0.00 | 0.00 | 0.00 | 98 | 1032.8 |
| 20260504193235 | 13 | 165 | 3.2 | 9.7 | 0.00 | 0.00 | 0.00 | 98 | 1032.7 |
| 20260504192734 | 13 | 180 | 6.4 | 9.7 | 0.00 | 0.00 | 0.00 | 97 | 1032.7 |
| 20260504192227 | 13 | 180 | 4.8 | 8.0 | 0.00 | 0.00 | 0.00 | 97 | 1032.7 |
| 20260504191732 | 13 | 178 | 4.8 | 8.0 | 0.00 | 0.00 | 0.00 | 97 | 1032.7 |
| 20260504191727 | 13 | 178 | 3.2 | 6.4 | 0.00 | 0.00 | 0.00 | 97 | 1032.6 |
| 20260504190718 | 13 | 179 | 3.2 | 8.0 | 0.00 | 0.00 | 0.00 | 97 | 1032.7 |
| 20260504190219 | 13 | 225 | 4.8 | 8.0 | 0.00 | 0.00 | 0.00 | 97 | 1032.7 |
| 20260504185715 | 13 | 187 | 4.8 | 8.0 | 0.00 | 0.00 | 0.00 | 97 | 1032.7 |
| 20260504185209 | 13 | 213 | 3.2 | 6.4 | 0.00 | 0.00 | 0.00 | 97 | 1032.7 |
| 20260504184942 | 13 | 186 | 1.6 | 8.0 | 0.00 | 0.00 | 0.00 | 97 | 1032.6 |
| 20260504184205 | 13 | 202 | 3.2 | 8.0 | 0.00 | 0.00 | 0.00 | 97 | 1032.7 |
| 20260504183703 | 13 | 188 | 3.2 | 4.8 | 0.00 | 0.00 | 0.00 | 97 | 1032.6 |
| 20260504183156 | 13 | 147 | 1.6 | 3.2 | 0.00 | 0.00 | 0.00 | 97 | 1032.6 |
| 20260504182659 | 13 | 147 | 3.2 | 3.2 | 0.00 | 0.00 | 0.00 | 97 | 1032.6 |
| 20260504182157 | 13 | 213 | 0.0 | 4.8 | 0.00 | 0.00 | 0.00 | 98 | 1032.6 |
| 20260504181651 | 13 | 213 | 1.6 | 4.8 | 0.00 | 0.00 | 0.00 | 98 | 1032.6 |
| 20260504181151 | 13 | 213 | 0.0 | 6.4 | 0.00 | 0.00 | 0.00 | 97 | 1032.6 |
| 20260504180646 | 13 | 213 | 3.2 | 6.4 | 0.00 | 0.00 | 0.00 | 97 | 1032.6 |
| 20260504180146 | 13 | 143 | 1.6 | 4.8 | 0.00 | 0.00 | 0.00 | 97 | 1032.6 |
| 20260504175645 | 13 | 143 | 1.6 | 4.8 | 0.00 | 0.00 | 0.00 | 97 | 1032.6 |
| 20260504175147 | 13 | 143 | 3.2 | 4.8 | 0.00 | 0.00 | 0.00 | 97 | 1032.6 |
| 20260504174644 | 13 | 143 | 1.6 | 4.8 | 0.00 | 0.00 | 0.00 | 97 | 1032.6 |
| 20260504174136 | 13 | 143 | 1.6 | 3.2 | 0.00 | 0.00 | 0.00 | 96 | 1032.6 |
| 20260504173635 | 13 | 143 | 0.0 | 4.8 | 0.00 | 0.00 | 0.00 | 96 | 1032.5 |
| 20260504173128 | 14 | 143 | 3.2 | 4.8 | 0.00 | 0.00 | 0.00 | 96 | 1032.7 |
| 20260504172618 | 14 | 143 | 1.6 | 4.8 | 0.00 | 0.00 | 0.00 | 96 | 1032.6 |
| 20260504172120 | 14 | 143 | 1.6 | 4.8 | 0.00 | 0.00 | 0.00 | 96 | 1032.5 |
| 20260504171614 | 14 | 143 | 1.6 | 4.8 | 0.00 | 0.00 | 0.00 | 96 | 1032.6 |
| 20260504171346 | 14 | 129 | 1.6 | 4.8 | 0.00 | 0.00 | 0.00 | 96 | 1032.5 |
| 20260504170612 | 14 | 118 | 1.6 | 6.4 | 0.00 | 0.00 | 0.00 | 96 | 1032.6 |
| 20260504170341 | 14 | 113 | 1.6 | 6.4 | 0.00 | 0.00 | 0.00 | 96 | 1032.5 |
| 20260504150953 | 13 | 115 | 3.2 | 6.4 | 0.00 | 0.00 | 0.00 | 99 | 1032.9 |
| 20260504150449 | 13 | 117 | 1.6 | 4.8 | 0.00 | 0.00 | 0.00 | 98 | 1032.9 |
| 20260504141147 | 13 | 138 | 4.8 | 8.0 | 0.00 | 0.00 | 0.00 | 97 | 1033.5 |
| 20260504141143 | 13 | 138 | 3.2 | 6.4 | 0.00 | 0.00 | 0.00 | 97 | 1033.4 |
| 20260504130817 | 14 | 117 | 3.2 | 8.0 | 0.00 | 0.00 | 0.00 | 95 | 1034.0 |
| 20260504130317 | 15 | 69 | 3.2 | 9.7 | 0.00 | 0.00 | 0.00 | 95 | 1034.0 |
| 20260504120239 | 13 | 127 | 4.8 | 11.3 | 0.00 | 0.00 | 0.00 | 96 | 1034.0 |
| 20260504110712 | 13 | 242 | 1.6 | 4.8 | 0.00 | 0.00 | 0.00 | 95 | 1034.1 |
| 20260504110421 | 13 | 101 | 1.6 | 3.2 | 0.00 | 0.00 | 0.00 | 95 | 1034.0 |
| 20260504100355 | 15 | 130 | 1.6 | 3.2 | 0.00 | 0.00 | 0.00 | 96 | 1034.2 |
| 20260504081521 | 14 | 134 | 3.2 | 8.0 | 0.00 | 0.00 | 0.00 | 96 | 1033.8 |
| 20260504081014 | 14 | 133 | 1.6 | 6.4 | 0.00 | 0.00 | 0.00 | 96 | 1033.8 |
| 20260504080511 | 14 | 143 | 3.2 | 6.4 | 0.00 | 0.00 | 0.00 | 96 | 1033.8 |
| 20260504070155 | 15 | 103 | 3.2 | 6.4 | 0.00 | 0.00 | 0.00 | 95 | 1033.6 |
| 20260504050310 | 16 | 103 | 3.2 | 9.7 | 0.00 | 0.00 | 0.00 | 91 | 1032.8 |
| 20260504045811 | 16 | 119 | 3.2 | 14.5 | 0.00 | 0.00 | 0.00 | 90 | 1032.7 |
| 20260504045306 | 16 | 121 | 4.8 | 14.5 | 0.00 | 0.00 | 0.00 | 90 | 1032.6 |
| 20260504044817 | 16 | 130 | 6.4 | 16.1 | 0.00 | 0.00 | 0.00 | 89 | 1032.7 |
| 20260504044810 | 16 | 104 | 6.4 | 12.9 | 0.00 | 0.00 | 0.00 | 89 | 1032.7 |
| 20260504043758 | 16 | 121 | 9.7 | 16.1 | 0.00 | 0.00 | 0.00 | 89 | 1032.7 |
| 20260504043255 | 16 | 99 | 6.4 | 12.9 | 0.00 | 0.00 | 0.00 | 89 | 1032.7 |
| 20260504042754 | 17 | 103 | 8.0 | 14.5 | 0.00 | 0.00 | 0.00 | 88 | 1032.7 |
| 20260504042250 | 17 | 119 | 8.0 | 14.5 | 0.00 | 0.00 | 0.00 | 88 | 1032.7 |
| 20260504041752 | 17 | 99 | 8.0 | 16.1 | 0.00 | 0.00 | 0.00 | 88 | 1032.8 |
| 20260504041251 | 17 | 118 | 6.4 | 16.1 | 0.00 | 0.00 | 0.00 | 87 | 1032.8 |
| 20260504040746 | 17 | 125 | 8.0 | 16.1 | 0.00 | 0.00 | 0.00 | 87 | 1032.8 |
| 20260504040246 | 17 | 113 | 6.4 | 17.7 | 0.00 | 0.00 | 0.00 | 87 | 1032.8 |
| 20260504035744 | 17 | 124 | 11.3 | 17.7 | 0.00 | 0.00 | 0.00 | 86 | 1032.8 |
| 20260504035244 | 17 | 99 | 9.7 | 20.9 | 0.00 | 0.00 | 0.00 | 86 | 1032.9 |
| 20260504034746 | 17 | 119 | 14.5 | 20.9 | 0.00 | 0.00 | 0.00 | 86 | 1033.0 |
| 20260504034241 | 17 | 101 | 9.7 | 17.7 | 0.00 | 0.00 | 0.00 | 86 | 1032.9 |
| 20260504033743 | 17 | 112 | 9.7 | 16.1 | 0.00 | 0.00 | 0.00 | 87 | 1032.8 |
| 20260504033513 | 17 | 103 | 9.7 | 17.7 | 0.00 | 0.00 | 0.00 | 86 | 1033.0 |
| 20260504033010 | 17 | 120 | 8.0 | 17.7 | 0.00 | 0.00 | 0.00 | 87 | 1032.9 |
| 20260504032233 | 17 | 141 | 12.9 | 17.7 | 0.00 | 0.00 | 0.00 | 86 | 1032.9 |
| 20260504031734 | 17 | 112 | 11.3 | 17.7 | 0.00 | 0.00 | 0.00 | 86 | 1032.8 |
| 20260504031230 | 17 | 124 | 8.0 | 16.1 | 0.00 | 0.00 | 0.00 | 86 | 1033.0 |
| 20260504030725 | 17 | 126 | 9.7 | 17.7 | 0.00 | 0.00 | 0.00 | 86 | 1032.9 |
| 20260504030226 | 17 | 126 | 8.0 | 17.7 | 0.00 | 0.00 | 0.00 | 86 | 1033.0 |
| 20260504025721 | 18 | 143 | 9.7 | 16.1 | 0.00 | 0.00 | 0.00 | 85 | 1033.0 |
| 20260504025501 | 18 | 98 | 9.7 | 16.1 | 0.00 | 0.00 | 0.00 | 83 | 1032.9 |
| 20260504025456 | 18 | 105 | 8.0 | 16.1 | 0.00 | 0.00 | 0.00 | 84 | 1032.8 |